TimeCDT,TemperatureF,Dew PointF,Humidity,Sea Level PressureIn,VisibilityMPH,Wind Direction,Wind SpeedMPH,Gust SpeedMPH,PrecipitationIn,Events,Conditions,WindDirDegrees,DateUTC
12:53 AM,43.0,42.1,97,29.99,4.0,ENE,12.7,20.7,N/A,,Overcast,60,2013-04-17 05:53:00
1:07 AM,42.8,42.8,100,29.98,3.0,ENE,11.5,-,N/A,,Overcast,60,2013-04-17 06:07:00
1:53 AM,43.0,43.0,100,29.96,3.0,ENE,11.5,-,N/A,,Overcast,60,2013-04-17 06:53:00
2:40 AM,42.8,42.8,100,29.92,2.5,ENE,10.4,-,N/A,,Overcast,60,2013-04-17 07:40:00
2:53 AM,43.0,43.0,100,29.93,2.0,East,9.2,-,N/A,,Overcast,80,2013-04-17 07:53:00
3:12 AM,42.8,42.8,100,29.89,1.8,East,9.2,-,N/A,,Overcast,80,2013-04-17 08:12:00
3:53 AM,44.1,43.0,96,29.88,2.5,East,9.2,-,N/A,,Overcast,100,2013-04-17 08:53:00
4:18 AM,44.6,42.8,93,29.86,3.0,East,10.4,-,N/A,,Overcast,100,2013-04-17 09:18:00
4:53 AM,45.0,44.1,97,29.86,3.0,ESE,6.9,-,0.00,,Light Drizzle,110,2013-04-17 09:53:00
5:53 AM,46.0,45.0,96,29.86,4.0,North,6.9,-,0.00,,Overcast,350,2013-04-17 10:53:00
6:22 AM,44.6,44.6,100,29.86,2.5,NW,6.9,-,N/A,,Overcast,320,2013-04-17 11:22:00
6:53 AM,45.0,44.1,97,29.88,2.0,NW,9.2,-,0.00,,Light Drizzle,320,2013-04-17 11:53:00
7:16 AM,44.6,44.6,100,29.87,1.5,NNW,12.7,-,0.01,,Light Drizzle,330,2013-04-17 12:16:00
7:48 AM,44.6,42.8,93,29.87,2.5,NNW,9.2,-,0.02,,Light Drizzle,340,2013-04-17 12:48:00
7:53 AM,44.1,43.0,96,29.88,3.0,North,9.2,-,0.02,,Light Drizzle,350,2013-04-17 12:53:00
8:53 AM,44.6,-9999,N/A,29.87,6.0,North,8.1,-,N/A,,Light Drizzle,360,2013-04-17 13:53:00
9:20 AM,44.6,-9999,N/A,29.87,2.0,North,10.4,-,0.00,,Light Drizzle,360,2013-04-17 14:20:00
9:30 AM,44.6,-9999,N/A,29.87,1.8,North,10.4,-,0.00,,Light Drizzle,350,2013-04-17 14:30:00
9:38 AM,44.6,-9999,N/A,29.87,2.0,North,10.4,-,0.00,,Light Drizzle,350,2013-04-17 14:38:00
9:53 AM,44.1,-9999,N/A,29.87,2.0,North,12.7,-,0.00,,Overcast,350,2013-04-17 14:53:00
10:07 AM,44.6,-9999,N/A,29.86,1.5,North,13.8,-,0.00,Rain,Light Rain,350,2013-04-17 15:07:00
10:23 AM,44.6,-9999,N/A,29.86,2.0,North,12.7,-,0.00,Rain,Light Rain,360,2013-04-17 15:23:00
10:53 AM,44.1,44.1,100,29.87,1.8,North,10.4,-,0.00,Rain,Light Rain,360,2013-04-17 15:53:00
11:21 AM,44.6,44.6,100,29.85,2.0,North,11.5,-,0.01,Rain,Light Rain,360,2013-04-17 16:21:00
11:53 AM,45.0,44.1,97,29.85,2.0,NNE,10.4,-,0.01,,Overcast,20,2013-04-17 16:53:00
12:53 PM,46.0,45.0,96,29.82,2.0,North,11.5,-,0.00,,Overcast,10,2013-04-17 17:53:00
1:53 PM,46.9,46.0,97,29.77,1.8,NNE,10.4,-,0.00,,Overcast,30,2013-04-17 18:53:00
2:53 PM,46.9,46.0,97,29.75,1.8,NNE,8.1,-,0.00,,Overcast,20,2013-04-17 19:53:00
3:46 PM,46.4,46.4,100,29.73,3.0,North,9.2,-,0.10,Rain,Light Rain,10,2013-04-17 20:46:00
3:53 PM,46.9,46.0,97,29.75,4.0,NNW,11.5,-,0.10,Rain,Light Rain,340,2013-04-17 20:53:00
4:53 PM,46.9,46.0,97,29.73,6.0,North,9.2,-,0.04,Rain,Light Rain,350,2013-04-17 21:53:00
5:28 PM,46.4,44.6,93,29.73,2.0,NNW,11.5,-,0.00,Rain,Light Rain,340,2013-04-17 22:28:00
5:53 PM,46.0,45.0,96,29.73,7.0,North,15.0,-,0.00,,Overcast,350,2013-04-17 22:53:00
6:08 PM,46.4,44.6,93,29.74,2.5,NNW,12.7,-,N/A,,Overcast,340,2013-04-17 23:08:00
6:39 PM,44.6,44.6,100,29.74,5.0,North,11.5,-,0.01,Rain,Light Rain,350,2013-04-17 23:39:00
6:53 PM,45.0,43.0,93,29.74,7.0,North,13.8,23.0,0.01,,Overcast,350,2013-04-17 23:53:00
7:34 PM,44.6,42.8,93,29.72,6.0,North,18.4,23.0,0.00,Rain-Thunderstorm,Light Thunderstorms and Rain,360,2013-04-18 00:34:00
7:53 PM,44.1,43.0,96,29.73,8.0,North,20.7,31.1,0.00,Rain,Light Rain,360,2013-04-18 00:53:00
8:53 PM,43.0,41.0,93,29.70,10.0,North,17.3,-,0.00,,Overcast,10,2013-04-18 01:53:00
9:53 PM,43.0,41.0,93,29.70,10.0,North,13.8,23.0,N/A,,Overcast,360,2013-04-18 02:53:00
10:53 PM,43.0,41.0,93,29.72,10.0,North,13.8,26.5,N/A,,Overcast,360,2013-04-18 03:53:00
11:30 PM,42.8,41.0,93,29.72,8.0,NNW,20.7,26.5,0.00,Rain-Thunderstorm,Light Thunderstorms and Rain,340,2013-04-18 04:30:00
11:53 PM,42.1,39.9,92,29.70,10.0,North,23.0,28.8,0.05,Rain,Light Rain,360,2013-04-18 04:53:00